User: anonymous   Login
Location: Unspecified
(0.0000°N, 0.0000°E)
Time: 09:05:05
(UTC+00:00)
Language:

deb Delta 104 - Orbit

View from above orbital plane
View from above orbital plane
View from above satellite
View from above satellite

Ground track
Ground track

The orbit is defined by the following mean orbital elements,

1 09988U          26110.10429119 +.00000000 +00000-0 +13832-2 0 00003
2 09988 103.0356 154.8466 0212744  17.2931 343.5322 13.95695147    03
Epoch (UTC): 20 April 2026 02:30:10
Eccentricity: 0.0212744
inclination: 103.0356°
perigee height: 754 km
apogee height: 1064 km
right ascension of ascending node: 154.8466°
argument of perigee: 17.2931°
revolutions per day: 13.95695147
mean anomaly at epoch: 343.5322°

The dashed part of the orbit path shows where the satellite is in the earth's shadow,  

DLR